This demonstration page uses our WeatherBlox Daily Observations layout. Learn more.

Left ArrowRight Arrow

Hourly Observations for October 30, 2016

Temp ( °F °C ) Dew Point ( °F °C ) Humidity (%) Winds ( mph kmh ) Pressure ( in mb ) Visibility ( mi km ) Precip ( " mm )
12:15 am 00:15 Cloudy 52 11 45 7 77 77 N 16 26 30.18 1022 10 16.0934 0 0
12:26 am 00:26 Cloudy 52 11 45 7 77 77 N 18 30 30.21 1023 10 16.0934 0 0
12:54 am 00:54 Cloudy 51 10.6 44 6.7 77 77 N 14 22 30.16 1021 10 16.0934 0 0
1:40 am 01:40 Cloudy 48 9 45 7 87 87 N 16 26 30.21 1023 10 16.0934 0 0
1:54 am 01:54 Cloudy 49 9.4 44 6.7 83 83 N 16 26 30.18 1022 10 16.0934 0 0
2:54 am 02:54 Cloudy 49 9.4 44 6.7 83 83 N 15 24 30.19 1022 10 16.0934 0 0
3:44 am 03:44 Partly Cloudy 46 8 43 6 87 87 NNE 9 15 30.24 1024 10 16.0934 0 0
3:54 am 03:54 Mostly Cloudy 47 8.3 43 6.1 86 86 NNE 8 13 30.2 1023 10 16.0934 0 0
4:07 am 04:07 Mostly Cloudy 47 8.3 43 6.1 86 86 N 6 9 30.24 1024 10 16.0934 0 0
4:17 am 04:17 Cloudy 46 8 43 6 87 87 N 10 17 30.24 1024 10 16.0934 0 0
4:54 am 04:54 Cloudy 47 8.3 42 5.6 83 83 NNE 15 24 30.21 1023 10 16.0934 0 0
5:54 am 05:54 Cloudy 47 8.3 42 5.6 83 83 N 12 19 30.25 1025 10 16.0934 0 0
6:54 am 06:54 Cloudy 47 8.3 43 6.1 86 86 NNE 12 19 30.26 1025 10 16.0934 0 0
7:54 am 07:54 Cloudy 46 7.8 41 5 83 83 N 13 20 30.28 1025 10 16.0934 0 0
8:19 am 08:19 Cloudy 46 7.8 41 5 83 83 N 12 19 30.3 1026 10 16.0934 0 0
8:54 am 08:54 Cloudy 46 7.8 41 5 83 83 N 14 22 30.3 1026 10 16.0934 0 0
9:54 am 09:54 Cloudy 46 7.8 41 5 83 83 N 12 19 30.32 1027 10 16.0934 0 0
10:36 am 10:36 Cloudy 46 7.8 41 5 83 83 NNE 9 15 30.33 1027 10 16.0934 0 0
10:54 am 10:54 Cloudy 47 8.3 41 5 80 80 NNE 8 13 30.33 1027 10 16.0934 0 0
11:40 am 11:40 Cloudy 46 8 41 5 82 82 N 7 11 30.3 1026 10 16.0934 0 0
11:54 am 11:54 Cloudy 47 8.3 42 5.6 83 83 NNE 8 13 30.32 1027 10 16.0934 0 0
12:01 pm 12:01 Cloudy 47 8.3 42 5.6 83 83 NNE 7 11 30.3 1026 10 16.0934 0 0
12:54 pm 12:54 Mostly Cloudy 50 10 42 5.6 74 74 ENE 9 15 30.28 1026 10 16.0934 0 0
1:54 pm 13:54 Mostly Cloudy 53 11.7 43 6.1 69 69 ENE 7 11 30.25 1025 10 16.0934 0 0
2:01 pm 14:01 Sunny 53 11.7 43 6.1 69 69 NNE 7 11 30.27 1025 10 16.0934 0 0
2:54 pm 14:54 Sunny 54 12.2 43 6.1 67 67 ESE 7 11 30.23 1024 10 16.0934 0 0
3:54 pm 15:54 Sunny 55 12.8 42 5.6 62 62 Calm 30.21 1023 10 16.0934 0 0
4:54 pm 16:54 Sunny 56 13.3 43 6.1 62 62 S 6 9 30.19 1022 10 16.0934 0 0
5:54 pm 17:54 Sunny 54 12.2 44 6.7 69 69 SE 8 13 30.16 1022 10 16.0934 0 0
6:54 pm 18:54 Clear 53 11.7 44 6.7 72 72 SE 9 15 30.16 1022 9 14.48406 0 0
7:54 pm 19:54 Clear 52 11.1 44 6.7 75 75 SE 9 15 30.17 1022 10 16.0934 0 0
8:54 pm 20:54 Clear 50 10 44 6.7 80 80 SSE 10 17 30.16 1021 10 16.0934 0 0
9:54 pm 21:54 Clear 49 9.4 44 6.7 83 83 S 9 15 30.13 1020 10 16.0934 0 0
10:54 pm 22:54 Clear 49 9.4 45 7.2 86 86 S 8 13 30.12 1020 10 16.0934 0 0
11:54 pm 23:54 Clear 48 8.9 45 7.2 89 89 S 8 13 30.09 1019 10 16.0934 0 0

Powered by AerisWeather